Location: Unspecified
(0.0000°N, 0.0000°E)
Time: 01:37:19
(UTC+00:00)

Vanguard 1 - Pass Details

Date: 12 December 2017
Orbit: 650 x 3833 km, 34.3° (Epoch: 23 June)

Event Time Altitude Azimuth Distance (km) Brightness Sun altitude
Rises 00:54:54 0° 206° (SSW) 4,983 13.9 -62.5°
Reaches altitude 10° 01:02:53 10° 170° (S) 4,908 13.9 -61.4°
Maximum altitude 01:05:56 11° 158° (SSE) 5,157 14.0 -61.0°
Drops below altitude 10° 01:09:20 10° 145° (SE) 5,553 14.2 -60.5°
Sets 01:21:50 0° 114° (ESE) 7,502 15.0 -58.5°
